Regional Weather Roundup
Issued by NWS Portland, ME

Current Version | Previous Version | Text Only | Print | Product List | Glossary Off
Versions: 1 2 3 4 5 6 7 8 9 10 11 12 13 14 15 16 17 18 19 20 21 22 23 24 25 26 27 28 29 30 31 32 33 34 35 36 37 38 39 40 41 42 43 44 45 46 47 48 49 50

000
ASUS41 KGYX 271910
RWRGYX
WEATHER ROUNDUP FOR MAINE AND NEW HAMPSHIRE
NATIONAL WEATHER SERVICE GRAY ME
200 PM EST THU NOV 27 2014

MEZ002-005-006-010-012-015-018-020-021-024-026-027-029-272000-
MAINE

CITY           SKY/WX    TMP DP  RH WIND       PRES   REMARKS
PORTLAND       PTSUNNY   37  27  67 NW7       29.94R
SANFORD        CLOUDY    36  27  69 NW5       29.94R
BAR HARBOR     CLOUDY    34  30  86 N9        29.89R
WISCASSET      CLOUDY    35  26  69 VRB5      29.95R
ROCKLAND       SUNNY     34  25  69 NW10G17   29.91R
FRYEBURG         N/A     35  26  69 E5        29.92S
LEWISTONAUBURN PTSUNNY   34  21  60 NW8       29.93R
AUGUSTA        SUNNY     32  22  66 N12       29.93R
WATERVILLE     MOSUNNY   32  19  59 N13       29.91R
BANGOR         CLOUDY    31  22  69 NW16      29.92R WCI  20
GREENVILLE       N/A     24  18  77 N14G21    29.85R WCI  12
MILLINOCKET    CLOUDY    30  19  63 NW9       29.91R
HOULTON        CLOUDY    27  19  72 N14       29.86R WCI  16
PRESQUE ISLE   CLOUDY    27  16  63 NW14      29.88R WCI  15
FRENCHVILLE    CLOUDY    21  14  74 N15       29.86R WCI   8
CARIBOU        FLURRIES  25  18  74 NW14G22   29.87R WCI  13
$$

NHZ002-005-008-009-011-012-014-272000-
NEW HAMPSHIRE

CITY           SKY/WX    TMP DP  RH WIND       PRES   REMARKS
PORTSMOUTH     CLOUDY    34  30  83 W5        29.93R
ROCHESTER        N/A     34  28  79 W5        29.92S
NASHUA         CLOUDY    34  30  85 NW8       29.95R
MANCHESTER     CLOUDY    33  25  72 NW8       29.94R
CONCORD        NOT AVBL
LACONIA        MOSUNNY   32  25  74 CALM      29.91S
PLYMOUTH       CLOUDY    31  25  79 W9G20     29.94S
BERLIN         CLOUDY    26  18  71 N9        29.92F
WHITEFIELD     CLOUDY    27  20  75 N5        29.94S
JAFFREY          N/A     29  23  78 VRB3      29.92R
LEBANON        CLOUDY    31  22  69 N6        29.96F
MT WASHINGTON  PTSUNNY   12   9  85 N25         N/A  WCI  -8
$$

VTZ005-007-008-272000-
VERMONT

CITY           SKY/WX    TMP DP  RH WIND       PRES   REMARKS
ST JOHNSBURY     N/A     28  20  71 MISG      29.96S
MONTPELIER     CLOUDY    26  21  81 CALM      30.00R
BURLINGTON     CLOUDY    30  20  66 N5        30.02S
$$

MAZ007-012-024-CTZ003-RIZ002-NYZ038-NYZ072-272000-
SOUTHERN NEW ENGLAND AND NY

CITY           SKY/WX    TMP DP  RH WIND       PRES   REMARKS
BOSTON         CLOUDY    37  30  75 NW8       29.95S
WORCESTER      CLOUDY    31  26  82 NW9       29.91S
NANTUCKET      CLOUDY    41  32  70 N8        29.94R
PROVIDENCE     CLOUDY    40  30  67 VRB5      29.95R
HARTFORD       CLOUDY    36  27  69 NW7       29.95S
ALBANY         CLOUDY    32  24  72 N7        30.00F
NEW YORK CITY  CLOUDY    37  32  82 N7        29.97F
$$

ANZ081-ANZ082-ANZ150-NHZ014-MEZ023>029-272000-
COASTAL MARINE OBSERVATIONS

STATION/POSITION TIME  TEMP    WIND        PRES    WAVE
                       AIR SEA DIR/SP/G            HT/PER
                 (UTC) (F)     (DEG/KT/KT) (MB)    (FT/S)
MOUNT DESERT ROC 1900   34                 1011.8R
MATINICUS ROCK   1900          310/ 19/ 22 1012.3R
PORTLAND WX BUOY 1850   36 49  340/ 14/ 16 1013.2R   4/11
WELLS            1800   35 45  320/  5/  7 1012.7F
ISLE OF SHOALS   1900   35     300/ 10/ 11 1013.2R
JEFFREYS LEDGE   1821      51                N/A     8/ 9
CASHES LEDGE BUO 1850   37 50  330/ 16/ 21 1012.0S  10/12
$$

.............KEY..............
   WCI - WIND CHILL
   TC  - TEMPERATURE IN CELSIUS
   VSB - VISIBILITY IN MILES
   HX  - HEAT INDEX
   FAIR- INDICATES FEW OR NO CLOUDS BELOW 12,000 FT, WITH NO
         SIGNIFICANT WEATHER AND/OR OBSTRUCTIONS TO VISIBILITY.





USA.gov is the U.S. government's official web portal to all federal, state and local government web resources and services.